Regional Weather Roundup
Issued by NWS

Home | Current Version | Previous Version | Graphics & Text | Print | Product List | Glossary On
Versions: 1 2 3 4 5 6 7 8 9 10 11 12 13 14 15 16 17 18 19 20 21 22 23 24 25 26 27 28 29 30 31 32 33 34 35 36 37 38 39 40 41 42 43 44 45 46 47 48 49 50
000
ASUS43 KOAX 261902
RWRNE

WEATHER ROUNDUP FOR NEBRASKA
NATIONAL WEATHER SERVICE OMAHA NE
200 PM CDT WED APR 26 2017

NOTES: SATELLITE DATA IS BEING USED TO AUGMENT CLOUD COVER ABOVE
       12000 FEET.
       "FAIR" INDICATES FEW OR NO CLOUDS BELOW 12,000 FEET WITH NO
       SIGNIFICANT WEATHER AND/OR OBSTRUCTIONS TO VISIBILITY.

  * THESE STATIONS DO NOT REPORT WEATHER SUCH AS RAIN...SNOW OR FOG.

NEZ001>004-019>022-054>056-262000-
NEBRASKA PANHANDLE

CITY           SKY/WX    TMP DP  RH WIND       PRES   REMARKS
SCOTTSBLUFF    SUNNY     52  32  46 MISG      29.72F
ALLIANCE       SUNNY     45  33  63 NW13      29.73F
CHADRON        CLOUDY    38  29  70 CALM      29.78F
KIMBALL        SUNNY     54  26  33 N9G20     29.72F
SIDNEY         SUNNY     53  32  44 NW13      29.73F
$$

NEZ057>060-069>072-079>082-262000-
SOUTHWEST NEBRASKA

CITY           SKY/WX    TMP DP  RH WIND       PRES   REMARKS
NORTH PLATTE   SUNNY     47  30  51 N17G26    29.75F
IMPERIAL       SUNNY     51  33  50 N16       29.75F
LEXINGTON      PTSUNNY   46  32  58 N20G26    29.74F
MCCOOK         MOSUNNY   51  32  48 N17G25    29.74F
OGALLALA       SUNNY     51  31  47 N16       29.75F
$$

NEZ005>010-023>029-035>040-094-262000-
NORTH CENTRAL NEBRASKA

CITY           SKY/WX    TMP DP  RH WIND       PRES   REMARKS
VALENTINE      CLOUDY    37  26  64 NW17G24   29.78S WCI  27
AINSWORTH      CLOUDY    37  31  77 N23       29.76F WCI  26
BROKEN BOW     CLOUDY    41  30  65 N24G30    29.74F
O`NEILL        CLOUDY    40  29  64 NW23      29.74S WCI  29
ORD            CLOUDY    41  30  65 NW20      29.73S
THEDFORD       CLOUDY    41  30  64 N20G28    29.76F
$$

NEZ041-046>049-061>064-073>077-083>087-262000-
SOUTH CENTRAL NEBRASKA

CITY           SKY/WX    TMP DP  RH WIND       PRES   REMARKS
GRAND ISLAND   CLOUDY    42  32  67 N21       29.74S
AURORA         CLOUDY    42  32  67 N21       29.72F
HASTINGS       CLOUDY    43  31  62 N22G29    29.74F
HEBRON         CLOUDY    46  32  58 N15G28    29.71R
HOLDREGE       CLOUDY    43  31  61 NW15G26   29.73F
KEARNEY *      CLOUDY    43  28  56 N20G25    29.74S
YORK           CLOUDY    43  32  65 NW21G26   29.70F
$$

NEZ011>018-030>034-042>045-262000-
NORTHEAST NEBRASKA

CITY           SKY/WX    TMP DP  RH WIND       PRES   REMARKS
NORFOLK        CLOUDY    37  30  75 NW16G24   29.70F WCI  28
ALBION         CLOUDY    41  32  70 NW20G25   29.72F
BLAIR          CLOUDY    40  33  75 NW24G33   29.64F WCI  30
FREMONT        CLOUDY    40  33  75 NW21      29.69F WCI  30
TEKAMAH        CLOUDY    41  32  70 NW26G36   29.68F
WAYNE          CLOUDY    37  32  84 NW18G26   29.71F WCI  27
$$

NEZ050>053-065>068-078-088>093-262000-
SOUTHEAST NEBRASKA

CITY           SKY/WX    TMP DP  RH WIND       PRES   REMARKS
LINCOLN        CLOUDY    44  32  62 NW18      29.70F
OMAHA EPPLEY   CLOUDY    45  34  65 NW24      29.64F
BEATRICE       CLOUDY    43  34  70 N20       29.70R
FALLS CITY     PTSUNNY   48  36  63 NW17      29.64S
NEBRASKA CITY  CLOUDY    44  30  59 NW22      29.66R
PLATTSMOUTH    CLOUDY    43  31  63 NW21G26   29.65S
$$

NEZ044-045-051>053-067-262000-
OMAHA AREA

CITY           SKY/WX    TMP DP  RH WIND       PRES   REMARKS
OMAHA EPPLEY   CLOUDY    45  34  65 NW24      29.64F
BLAIR          CLOUDY    40  33  75 NW24G33   29.64F WCI  30
FREMONT        CLOUDY    40  33  75 NW21      29.69F WCI  30
MILLARD        CLOUDY    44  35  70 NW13G25   29.66F
OFFUTT AFB     CLOUDY    42  33  71 NW20G29   29.65F
PLATTSMOUTH    CLOUDY    43  31  63 NW21G26   29.65S
WAHOO          CLOUDY    41  32  69 NW21G30   29.67F
$$




USA.gov is the U.S. government's official web portal to all federal, state and local government web resources and services.